Back to Previous

Regional Weather Roundup

682 
ASUS44 KLZK 050105
RWRLZK

WEATHER ROUNDUP FOR ARKANSAS
NATIONAL WEATHER SERVICE LITTLE ROCK AR
800 PM CDT WED MAY 04 2016

NOTE: "FAIR" INDICATES FEW OR NO CLOUDS BELOW 12,000 FEET WITH NO
SIGNIFICANT WEATHER AND/OR OBSTRUCTIONS TO VISIBILITY.

ARZ001-003-010-029-050200-
NORTHWEST ARKANSAS
  
CITY           SKY/WX    TMP DP  RH WIND       PRES   REMARKS
FAYETTEVILLE   CLEAR     62  40  44 NW7       29.95R                  
FORT SMITH     CLEAR     71  35  26 N8        29.93R                  
HARRISON       CLEAR     63  39  41 NW6       29.93R                  
BENTONVILLE    CLEAR     66  34  30 N6        29.96S                  
ROGERS         CLEAR     64  38  38 N5        29.96S                  
SILOAM SPGS    CLEAR     63  37  39 NW9       29.97S                  
HIGHFILL       CLEAR     63  40  42 NW6       29.95S                  
SPRINGDALE     CLEAR     64  39  39 N6        29.97R                  
$$

ARZ004-005-016-050200-
NORTH CENTRAL ARKANSAS
  
CITY           SKY/WX    TMP DP  RH WIND       PRES   REMARKS
BATESVILLE     CLEAR     68  37  32 NW3       29.86R                  
FLIPPIN        CLEAR    N/A N/A N/A NW5       29.87R                  
MTN HOME       CLEAR     65  35  33 VRB5      29.89R                  
$$

ARZ040-041-050200-
WEST CENTRAL ARKANSAS
  
CITY           SKY/WX    TMP DP  RH WIND       PRES   REMARKS
MENA           CLEAR     70  43  37 NW8       29.93S                  
MOUNT IDA      CLEAR     69  41  36 NW5       29.88R                  
$$

ARZ009-017-025-026-028-050200-
NORTHEAST ARKANSAS
  
CITY           SKY/WX    TMP DP  RH WIND       PRES   REMARKS
CORNING          N/A     68  36  30 N13G20    29.85R                  
JONESBORO      CLEAR     69  39  33 N5        29.82R                  
NEWPORT        CLEAR     67  43  41 NW12      29.85R                  
WALNUT RIDGE   CLEAR     66  39  37 N9        29.84R                  
BLYTHEVILLE    PTCLDY    65  47  52 NE10      29.82R                  
$$

ARZ022-023-033-042-044-050200-
CENTRAL ARKANSAS
  
CITY           SKY/WX    TMP DP  RH WIND       PRES   REMARKS
LITTLE ROCK    CLEAR     72  40  31 N10       29.85R                  
N LITTLE ROCK    N/A     69  41  36 N5        29.85R                  
JACKSONVILLE   CLEAR     71  40  31 NW3       29.85R                  
SEARCY         CLEAR     70  39  32 NW7       29.86R                  
HOT SPRINGS    CLEAR     73  37  27 VRB5      29.88R                  
RUSSELLVILLE   CLEAR     71  38  29 NW5       29.88R                  
CLINTON        FAIR      68  37  32 CALM      29.88R                  
$$

ARZ036-050200-
EAST ARKANSAS
  
CITY           SKY/WX    TMP DP  RH WIND       PRES   REMARKS
WEST MEMPHIS   CLEAR     68  47  46 N6        29.80R                  
$$

ARZ050-053-066-070-073-050200-
SOUTHWEST ARKANSAS
  
CITY           SKY/WX    TMP DP  RH WIND       PRES   REMARKS
ARKADELPHIA    FAIR      75  49  39 N8        29.87R                  
CAMDEN         CLEAR     73  50  43 NW6       29.84R                  
TEXARKANA      CLEAR     76  53  44 W8        29.88R                  
EL DORADO      PTCLDY    72  54  53 W5        29.86R                  
DE QUEEN       CLEAR     74  43  32 N9G18     29.88R                  
$$

ARZ056-057-069-050200-
SOUTHEAST ARKANSAS
  
CITY           SKY/WX    TMP DP  RH WIND       PRES   REMARKS
PINE BLUFF     CLEAR     69  46  43 N7        29.84R                  
STUTTGART      CLEAR     68  45  42 NW12      29.84R                  
MONTICELLO     CLEAR     73  51  46 W6        29.82R                  

$$


  


USA.gov is the U.S. government's official web portal to all federal, state and local government web resources and services.